Miscellaneous Local Product
Issued by NWS Hastings, NE

Home | Current Version | Previous Version | Graphics & Text | Print | Product List | Glossary On
Versions: 1 2 3 4 5 6 7 8 9 10 11 12 13 14 15 16 17 18 19 20 21 22 23 24 25 26 27 28 29 30 31 32 33 34 35 36 37 38 39 40 41 42 43 44 45 46 47 48 49 50
000
AXUS43 KGID 230510
MISGRI

GID CWA HOURLY WEATHER ROUNDUP
NATIONAL WEATHER SERVICE HASTINGS NE
1200 AM CDT TUE SEP 23 2014

NOTE: "FAIR" INDICATES FEW OR NO CLOUDS BELOW 12,000 FEET WITH NO
SIGNIFICANT WEATHER AND/OR OBSTRUCTIONS TO VISIBILITY.

...SOUTH CENTRAL NEBRASKA...

CITY           SKY/WX    TMP DP  RH WIND       PRES   REMARKS
GRAND ISLAND   LGT RAIN  60  54  80 CALM      30.16F
HASTINGS       CLOUDY    63  47  55 S9        30.15F
KEARNEY        CLOUDY    57  52  82 SE7       30.15S
ORD            LGT RAIN  58  54  86 S9        30.11F
YORK           CLOUDY    61  50  67 S6        30.17F
AURORA         CLOUDY    63  48  58 S5        30.17F
LEXINGTON      CLOUDY    59  54  83 SE12      30.11S
HOLDREGE       RAIN      58  54  87 CALM      30.17R
HEBRON         CLOUDY    62  49  62 S6        30.16F

...NEBRASKA PANHANDLE...

CITY           SKY/WX    TMP DP  RH WIND       PRES   REMARKS
CHADRON        CLEAR     62  56  80 CALM      29.97S
ALLIANCE       PTCLDY    54  52  93 S9        30.02F
SCOTTSBLUFF    PTCLDY    56  54  93 E7        30.03F
SIDNEY         MOCLDY    59  54  83 S7        30.07F

...WESTERN AND NORTH CENTRAL NEBRASKA...

CITY           SKY/WX    TMP DP  RH WIND       PRES   REMARKS
VALENTINE      CLOUDY    61  54  77 S18G29    30.03S
AINSWORTH      CLOUDY    58  54  84 S18       30.06F
ONEILL         LGT RAIN  62  56  81 S13       30.12F
BROKEN BOW     CLOUDY    58  54  86 SE8       30.10F
IMPERIAL       CLOUDY    61  54  77 S8        30.05F
NORTH PLATTE   CLOUDY    59  51  75 SE12      30.08R
MCCOOK         RAIN      60  56  86 S26G37    30.06F FOG

...EASTERN NEBRASKA...

CITY           SKY/WX    TMP DP  RH WIND       PRES   REMARKS
NORFOLK        CLOUDY    62  51  67 S7        30.15S
SO SIOUX CITY  PTCLDY    55  51  86 SE6       30.17S
TEKAMAH        CLOUDY    57  52  83 CALM      30.17F
COLUMBUS       CLOUDY    63  48  59 S6        30.17F
ALBION         LGT RAIN  59  52  78 SE7       30.15F
OMAHA EPPLEY   CLOUDY    62  51  67 S7        30.19S
OFFUTT AFB     CLOUDY    59  56  90 SE7       30.19S
MILLARD        CLOUDY    62  52  70 SE5       30.18F
LINCOLN        CLOUDY    63  51  65 S9        30.18F
NEBRASKA CITY    N/A     59  48  67 S6        30.20S
BEATRICE       CLOUDY    61  50  66 SE7       30.18F
FALLS CITY     MOCLDY    56  52  86 S5        30.21R

...NORTHERN KANSAS...

CITY           SKY/WX    TMP DP  RH WIND       PRES   REMARKS
GOODLAND       TSTM      62  56  80 S13G31    30.15R
HILL CITY      CLOUDY    69  45  41 S16G26    30.09F
NORTON         HVY RAIN  63  46  55 W15G37    30.17R
PHILLIPSBURG   MOCLDY    66  46  48 E13       30.10F
SMITH CENTER   MOCLDY    64  48  55 SE15      30.13F
BELOIT         PTCLDY    64  48  55 SE10G16   30.14F
HAYS           CLOUDY    68  45  42 S13       30.13S
RUSSELL        CLOUDY    67  46  47 S18       30.12F
CONCORDIA      CLOUDY    63  51  65 SE13      30.16F
SALINA         PTCLDY    63  50  62 SE13      30.17F
TOPEKA         PTCLDY    58  52  80 E3        30.22S



USA.gov is the U.S. government's official web portal to all federal, state and local government web resources and services.